User: anonymous   Login
Location: Castle Hill Houses
(40.8186°N, 73.8497°W)
Time: 11:32:19
(UTC+00:00)
Language:

Cosmos 2228 - Orbit

View from above orbital plane
View from above orbital plane
View from above satellite
View from above satellite

Ground track
Ground track

The orbit data is extracted from the following two-line orbital elements,

1 22286U 92094A   20099.11071904  .00000175  00000-0  16271-4 0  9991
2 22286  82.5176 126.2794 0019973 318.2315  41.7376 14.88127065475055
Epoch (UTC): 08 April 2020 02:39:26
Eccentricity: 0.0019973
inclination: 82.5176°
perigee height: 590 km
apogee height: 618 km
right ascension of ascending node: 126.2794°
argument of perigee: 318.2315°
revolutions per day: 14.88127065
mean anomaly at epoch: 41.7376°
orbit number at epoch: 47505

The dashed part of the orbit path shows where the satellite is in the earth's shadow,  

DLR